Location: T. Spence Memorial Observatory
(32.7356°N, 82.2098°W)
Time: 23:44:51
(UTC-04:00)

Daily predictions for brighter satellites

Satellite Brightness Start Highest point End
(mag) Time Altitude Azimuth Time Altitude Azimuth Time Altitude Azimuth
Cosmos 1934 Rocket 4.1 20:13:14 10° S 20:19:12 58° E 20:25:16 10° NNE
Meteor 1-23 Rocket 4.3 20:14:22 10° N 20:20:00 63° E 20:25:41 10° SSE
Delta 2 Rocket 4.1 20:15:10 10° WNW 20:21:02 87° NNE 20:26:28 10° ESE
Cosmos 1544 Rocket 3.5 20:19:20 10° S 20:23:40 75° E 20:28:05 10° N
SJ-6B 3.5 20:21:37 10° S 20:25:15 55° W 20:28:56 10° NNW
DELTA 2 R/B (1) 4.3 20:21:02 10° WNW 20:26:24 45° N 20:31:42 10° E
Helios 1B rocket 2.8 20:23:32 10° N 20:27:38 71° WNW 20:31:43 10° SSW
Resurs 01 Rocket 1.6 20:23:33 10° SSE 20:27:57 73° ENE 20:32:23 10° N
FengYun 1-2 T 4.5 20:24:18 10° SSE 20:29:46 54° ENE 20:35:13 10° N
Okean 2 3.5 20:25:42 10° N 20:29:46 53° E 20:33:48 10° SSE
Cosmos 2227 Rocket 2.7 20:25:08 10° N 20:30:28 41° ENE 20:35:46 10° SE
Hubble Space Telescope 2.4 20:27:45 10° WSW 20:31:10 25° SSW 20:34:34 10° SE
H-2A R/B 4.0 20:27:48 10° WSW 20:31:43 46° S 20:49:44 12° ESE
Myojo/LAPS 3.6 20:31:17 10° WSW 20:34:06 32° S 20:36:00 12° ESE
HJ-1C 3.4 20:32:29 10° S 20:35:44 81° WSW 20:39:02 10° NNW
OAO 2 Rocket 3.5 20:33:40 10° W 20:38:39 72° N 20:43:43 10° ENE
Meteor 1-29 4.2 20:39:39 10° N 20:42:59 46° WNW 20:46:20 10° SSW
Meteor 1-5 Rocket 4.3 20:39:24 10° SSW 20:44:43 76° W 20:50:10 10° N
Cosmos 2297 Rocket 2.8 20:40:16 10° N 20:45:33 39° ENE 20:50:15 13° SE
Cosmos 2082 3.9 20:40:53 10° N 20:46:23 53° ENE 20:51:52 10° SE
ALOS 2.5 20:41:54 10° SSE 20:46:24 51° ENE 20:50:56 10° N
Helios 1A 3.7 20:47:49 10° S 20:51:53 55° W 20:56:00 10° NNW
Cosmos 1346 Rocket 2.7 20:48:35 10° N 20:52:33 85° E 20:56:34 10° S
ATLAS 2A CENTAUR R/B 3.0 20:48:36 10° W 20:52:35 18° SW 20:54:34 10° S
USA 186 2.4 20:51:42 18° SE 20:53:29 33° ENE 20:56:11 10° N
ATLAS 3B CENTAUR R/B 1.7 20:53:13 10° WSW 20:54:43 17° SSW 20:55:11 15° S
OTV 4 0.4 20:54:05 10° WNW 20:57:02 75° NNE 20:58:28 27° ESE
NOSS 3-4 (A) 3.9 20:52:40 10° NNW 20:59:50 85° WSW 21:07:24 10° SSE
NOSS 3-4 (C) 3.9 20:52:47 10° NNW 20:59:58 86° WSW 21:07:31 10° SSE
Cosmos 1461 2.7 21:00:54 10° NNW 21:04:55 84° WSW 21:07:47 18° SSE
Cosmos 1605 Rocket 4.2 21:03:40 10° S 21:10:01 76° W 21:16:18 10° N
CZ-4B DEB 3.7 21:07:48 10° S 21:10:59 49° W 21:14:12 10° NNW
Cosmos 1743 3.7 21:13:06 27° E 21:13:06 27° E 21:16:11 10° NNE
Cosmos 1697 Rocket 2.6 21:10:46 10° SSW 21:16:24 84° ESE 21:22:04 10° NNE
Tiangong 1 3.4 21:15:45 10° NNW 21:17:40 15° N 21:18:49 13° NE
RESURS DK-1 3.7 21:16:11 10° N 21:19:31 23° ENE 21:19:37 23° ENE
Cosmos 2100 Rocket 4.1 21:13:42 10° SSE 21:19:45 52° E 21:25:46 10° NNE
H-2A R/B 3.9 21:20:45 15° NE 21:20:45 15° NE 21:22:25 10° NNE
Cosmos 1066 Rocket 4.5 21:17:23 10° N 21:22:56 50° E 21:25:46 28° SE
Envisat 3.8 21:23:25 29° E 21:24:19 31° ENE 21:28:46 10° N
YAOGAN 11 4.5 21:24:12 36° ESE 21:25:23 45° ENE 21:29:40 10° N
Iridium 4 Rocket 3.1 21:21:10 10° N 21:26:03 78° E 21:29:07 20° S
Cosmos 1626 Rocket 3.6 21:23:00 10° N 21:27:23 80° W 21:30:34 18° S
Cosmos 2298 Rocket 4.0 21:24:21 10° N 21:29:37 65° ENE 21:31:50 35° SE
Cosmos 2061 Rocket 4.0 21:23:45 10° SSE 21:29:54 57° E 21:36:01 10° NNE
Cosmos 1937 Rocket 4.0 21:26:02 10° N 21:31:01 41° ENE 21:32:04 37° E
Cosmos 2084 3.6 21:28:32 10° NNW 21:32:35 53° ENE 21:33:09 48° E
Milstar 3 Cent rocket 4.5 21:09:46 10° W 21:34:34 75° S 21:41:58 30° ESE
Cosmos 1602 Rocket 4.0 21:32:46 10° NNW 21:37:09 60° W 21:40:24 17° S
H-2A R/B 4.0 21:35:06 12° SSW 21:38:22 40° W 21:42:05 10° NNW
Cosmos 1980 Rocket 2.1 21:34:16 10° SSW 21:39:55 80° ESE 21:45:37 10° NNE
Cosmos 220 Rocket 4.4 21:37:17 10° NNW 21:41:26 58° WSW 21:43:07 32° SSW
Lacrosse 5 2.4 21:39:30 10° NNW 21:44:17 41° NE 21:44:53 40° ENE
deb Chang Zheng 4 4.4 21:41:28 10° NNE 21:44:26 36° NE 21:44:26 36° NE
SPOT 5 3.9 21:49:22 31° NE 21:49:22 31° NE 21:52:55 10° N
Cosmos 1459 Rocket 3.8 21:42:52 10° S 21:48:55 87° E 21:55:02 10° N
ERS-1 Rocket 2.8 21:48:21 53° SSE 21:49:30 77° ENE 21:54:31 10° N
Cosmos 1725 Rocket 4.5 21:53:16 39° ENE 21:53:16 39° ENE 21:58:25 10° NNE
Cosmos 2150 Rocket 3.9 21:50:07 10° NNW 21:55:17 82° WSW 21:56:30 54° S
BREEZE-M TANK 3.7 21:49:43 10° NW 21:57:24 38° NNE 21:58:04 35° NE
Lacrosse 5 rocket 2.4 21:54:52 10° WNW 21:57:58 33° WSW 21:57:58 33° WSW
Cosmos 2098 Rocket 4.1 22:00:54 53° SE 22:01:55 58° E 22:07:52 10° NNE
SJ-11-01 4.5 22:01:22 54° SSW 22:02:15 68° WSW 22:06:55 10° NNW
Cosmos 1763 Rocket 3.4 21:57:20 10° SSW 22:02:27 79° WNW 22:07:33 10° NNE
Cosmos 1606 Rocket 3.9 22:06:33 61° N 22:06:33 61° N 22:10:15 10° N
Cosmos 2263 Rocket 4.4 22:08:03 10° NNE 22:09:09 12° NE 22:09:09 12° NE
Cosmos 1898 Rocket 4.1 22:06:13 10° NNW 22:11:21 53° WSW 22:12:34 43° SW
DELTA 2 R/B (1) 3.4 22:07:34 10° WNW 22:13:06 84° SW 22:13:06 84° SW
Cosmos 2322 Rocket 3.8 22:16:55 22° NE 22:16:55 22° NE 22:18:51 10° NNE
Cosmos 2227 Rocket 4.3 22:10:01 10° NW 22:14:08 21° W 22:18:16 10° SSW
OAO 2 Rocket 3.7 22:18:37 10° WNW 22:22:50 60° NW 22:22:50 60° NW
Cosmos 1939 Rocket 4.3 22:25:01 38° WNW 22:25:01 38° WNW 22:28:09 10° NNW
Cosmos 841 Rocket 4.1 22:23:27 29° SW 22:25:55 53° WNW 22:31:02 10° N
SL-08 R/B 4.5 22:25:28 64° SSW 22:26:28 80° W 22:32:40 10° N
Meteor 1-21 4.3 22:23:14 10° NNW 22:29:01 74° W 22:29:03 74° W
Cosmos 2297 Rocket 4.2 22:24:58 10° NW 22:29:16 23° W 22:32:06 16° SW
SL-16 R/B 3.9 23:13:10 28° N 23:13:10 28° N 23:16:02 10° N
H-2A R/B 4.4 23:27:29 16° N 23:27:29 16° N 23:28:29 10° N
Lacrosse 5 4.5 23:22:59 10° WNW 23:24:05 15° WNW 23:24:05 15° WNW
